Wind_Speed
10 11 11 11 12 12 11 11 12 12 11 11 10 10 10 9 8 8 7 6 6 6 6 6 7 8 11 13 15 19 22 24 26 28 29 31 33 36 38 39 41 42 43
10 10 10 11 11 11 11 11 12 12 12 11 11 10 10 9 9 9 8 7 6 6 6 6 7 8 8 11 13 16 19 22 24 27 28 29 31 33 35 38 39 40 42
9 9 10 11 11 11 11 12 12 13 12 12 11 11 10 10 10 10 9 8 7 7 7 7 7 7 8 9 11 14 16 19 21 24 26 28 30 31 34 35 37 38 41
9 9 9 10 11 11 11 12 12 13 13 13 12 12 11 10 10 10 10 9 9 8 8 8 8 8 8 9 10 12 14 16 19 21 24 26 27 29 31 33 34 36 39
9 9 9 10 10 11 12 12 13 13 13 13 13 12 12 11 11 10 10 10 9 9 9 8 8 8 9 9 10 11 12 13 16 18 20 22 24 25 28 30 31 33 35
9 8 9 10 10 11 12 13 13 13 14 14 14 13 12 12 11 11 10 10 10 10 9 9 9 9 9 9 10 10 11 12 13 15 17 20 22 23 25 27 28 30 32
9 9 9 10 10 11 12 13 13 13 14 14 14 14 13 13 12 12 11 11 10 10 10 10 10 10 10 10 10 10 11 11 12 13 15 17 19 21 23 24 26 27 29
11 10 10 10 11 11 12 13 13 13 14 14 14 14 14 13 13 13 12 12 12 11 11 11 11 11 10 10 11 11 11 12 12 13 14 15 17 18 20 21 23 25 26
13 12 12 11 11 12 12 13 13 14 14 14 14 14 14 14 14 14 14 13 13 13 12 12 12 12 12 12 12 12 12 12 13 13 13 14 15 16 18 19 20 22 24
15 14 13 13 12 12 13 13 14 14 14 14 15 15 15 15 15 15 15 15 14 14 14 14 14 13 13 13 13 13 13 13 14 14 14 14 14 15 17 18 19 21 22
17 17 15 15 14 13 13 14 14 14 15 15 15 16 16 16 16 16 16 16 16 16 15 15 15 15 15 15 15 15 15 15 15 15 15 15 15 15 16 17 19 20 22
20 19 18 17 16 15 15 15 15 15 16 16 16 17 17 17 17 17 17 17 17 17 17 17 17 17 17 17 17 17 17 17 17 17 17 17 17 17 18 18 19 20 21
22 21 20 19 18 17 17 16 16 16 16 17 17 18 18 18 18 18 18 19 19 19 19 19 19 19 19 19 19 19 18 18 18 18 19 19 19 19 20 20 20 21 22
24 23 22 21 21 20 19 19 18 18 18 18 19 19 19 19 20 20 20 20 20 20 21 21 21 21 21 21 21 21 20 20 20 20 20 20 21 21 21 22 22 22 23
27 26 25 24 23 22 22 21 21 20 20 20 20 21 21 21 21 21 22 22 22 22 22 22 23 23 23 23 23 23 23 23 23 23 23 23 23 23 23 23 24 24 24
29 28 27 26 26 25 24 23 23 23 22 22 22 23 23 23 23 23 24 24 24 24 24 24 24 25 25 25 25 25 25 25 25 25 25 26 26 26 26 26 26 26 26
31 30 29 29 28 27 27 26 25 25 25 25 25 25 25 25 26 26 26 26 26 26 26 27 27 27 27 28 28 28 28 28 28 28 28 28 29 29 29 29 29 29 29
33 33 32 31 30 30 29 28 27 27 27 27 27 27 28 28 28 28 29 29 29 29 29 29 29 30 30 30 31 31 31 31 31 31 31 31 32 32 32 32 32 32 33
36 35 34 33 32 32 31 30 30 29 29 29 30 30 30 30 31 31 32 32 32 32 32 32 32 32 32 33 33 33 33 34 34 34 34 34 34 34 35 35 35 35 36
38 37 36 35 34 34 33 33 32 32 32 32 32 32 33 33 34 34 34 34 34 34 34 34 35 35 35 35 35 36 36 36 37 37 37 37 37 37 38 38 39 39 39
40 39 38 37 37 36 36 35 35 34 34 34 34 35 35 36 36 36 37 36 36 36 36 36 36 37 37 37 38 38 38 39 39 39 40 40 40 41 41 41 42 42 43
43 42 41 40 39 38 38 38 37 37 37 37 37 37 38 38 39 39 39 39 39 38 38 38 38 39 39 39 39 40 40 41 41 42 42 43 43 44 45 45 45 45 46
46 45 43 42 41 40 40 40 39 39 39 39 39 39 40 40 41 41 41 41 41 40 40 40 40 40 40 40 40 41 41 42 42 43 44 45 46 46 47 48 48 49 49
49 47 46 44 43 42 42 41 41 41 41 41 41 42 42 42 42 43 43 42 42 41 41 41 41 41 41 41 41 42 42 43 44 45 45 46 47 48 49 50 51 52 53
51 50 48 47 46 45 44 44 44 44 44 44 44 44 44 44 44 44 44 43 43 42 42 42 42 42 42 42 42 43 44 45 46 46 47 48 49 50 51 53 54 55 55
53 51 50 49 48 47 46 45 45 45 45 45 45 45 45 45 45 45 44 44 44 43 43 43 43 43 43 43 44 45 45 46 47 48 48 49 51 52 53 54 55 55 56
Wind_Direction
348 353 356 360 1 3 5 6 8 9 8 7 5 3 2 359 354 349 340 334 327 316 308 297 285 271 258 251 250 248 248 248 246 246 244 243 243 243 241 242 243 241 241
344 348 353 357 360 3 4 3 4 4 4 2 360 358 356 354 352 349 344 337 330 320 310 304 297 287 275 262 257 255 254 252 250 250 249 247 246 245 244 244 244 243 242
337 343 348 353 355 357 358 357 358 358 358 357 355 353 351 349 348 347 343 337 330 321 311 305 299 292 286 277 267 263 260 255 253 252 252 251 250 249 247 247 247 245 244
329 336 342 348 350 352 352 352 352 352 352 351 350 348 347 345 343 341 338 335 330 323 316 309 303 296 292 287 278 271 264 259 256 254 253 253 254 253 251 250 249 248 247
317 327 336 341 345 347 347 347 347 347 347 347 345 344 342 340 340 338 336 331 328 326 322 314 308 302 298 293 286 278 271 266 262 259 257 255 256 255 253 252 251 251 251
306 315 324 332 337 340 342 343 343 344 344 345 344 342 340 338 337 337 335 332 327 325 323 318 313 306 302 297 293 285 278 273 268 265 263 260 259 258 254 254 253 253 253
293 303 312 322 329 333 336 338 339 340 341 342 342 340 338 336 335 334 332 330 327 324 321 317 314 310 304 301 299 294 286 282 278 273 270 267 264 261 258 257 256 255 256
282 291 300 310 319 325 330 334 335 336 338 339 339 337 334 333 331 330 329 327 324 321 317 315 312 310 304 301 298 297 293 288 285 281 276 270 266 263 262 260 258 257 257
273 281 289 298 307 314 321 327 331 333 334 334 334 334 332 330 327 325 324 322 320 318 316 313 309 306 302 299 296 294 294 292 290 288 286 280 274 270 266 264 262 261 260
267 273 280 289 297 304 312 319 324 327 329 328 329 330 329 327 325 322 320 318 316 314 312 310 307 304 301 299 296 294 291 290 289 288 288 285 280 276 272 268 266 265 263
263 268 273 280 288 294 302 309 314 319 322 323 324 325 326 325 323 320 317 314 312 311 309 307 304 302 300 298 296 294 292 290 288 286 285 283 281 279 277 274 272 271 268
260 264 268 274 280 286 292 299 305 310 315 318 320 321 322 322 321 318 314 311 309 307 306 305 303 301 299 297 296 294 292 290 288 287 285 283 282 280 279 278 276 274 273
258 261 264 269 274 279 285 291 296 303 308 313 316 317 318 319 318 316 313 310 307 306 304 303 301 300 299 298 296 295 291 290 289 288 286 285 284 282 281 280 279 277 276
256 259 262 265 270 274 279 284 289 295 301 306 310 312 314 316 316 315 313 309 306 303 302 301 299 298 297 296 294 293 292 290 289 289 287 286 284 283 282 282 281 280 279
255 257 260 263 267 271 275 279 284 289 294 299 303 307 309 312 313 312 311 309 306 303 301 299 298 296 295 294 293 292 291 289 287 287 287 286 285 284 283 283 283 282 282
254 256 259 262 265 268 272 276 280 285 289 293 298 301 305 307 309 309 309 308 306 303 301 299 297 296 294 293 292 291 290 289 288 288 287 286 285 285 284 284 283 283 284
253 255 258 261 264 267 270 273 277 281 286 290 294 297 300 303 304 305 306 306 304 302 300 298 296 295 293 292 291 290 289 289 288 287 287 286 285 285 284 284 283 283 283
252 255 257 260 262 266 269 272 275 279 283 287 290 294 297 299 301 302 303 303 302 301 298 297 296 294 293 292 291 290 289 288 288 287 287 286 285 285 284 283 283 283 283
252 255 257 259 262 265 268 271 274 277 281 284 288 291 294 297 299 300 300 301 301 300 298 296 295 294 292 291 290 289 288 287 287 287 287 286 286 285 284 283 283 282 282
252 254 257 259 262 265 268 270 273 277 280 283 287 290 293 296 298 299 299 300 299 299 297 296 295 293 292 290 289 288 287 287 287 287 286 286 286 285 285 284 283 283 282
252 254 257 259 262 265 267 270 273 277 280 283 286 289 292 295 297 298 299 299 298 298 297 296 295 294 292 291 289 288 287 287 287 287 287 286 286 286 285 284 284 283 282
252 255 257 260 262 264 267 270 273 277 280 283 286 289 292 294 296 297 298 298 298 298 297 296 295 294 293 292 290 288 287 287 287 287 287 287 286 286 286 285 285 284 284
252 254 257 259 262 264 267 270 273 276 280 283 286 289 291 294 295 297 297 298 298 298 297 296 296 294 293 292 291 290 289 288 288 287 287 287 287 286 286 286 286 285 285
251 253 256 259 262 264 267 270 273 276 279 283 286 288 290 293 294 296 296 297 297 297 296 296 296 295 294 292 291 290 290 289 289 289 288 288 288 288 287 287 286 285 285
250 252 255 258 261 264 267 270 273 276 279 282 285 287 289 291 293 294 295 295 296 296 296 296 295 295 294 293 292 292 291 291 290 290 289 289 289 289 288 288 288 287 286
249 252 255 258 261 264 267 270 273 276 279 282 284 287 289 290 292 293 294 294 295 295 295 295 295 294 294 293 293 293 292 292 291 291 291 291 291 291 290 290 289 288 288
Height
5819 5816 5813 5810 5807 5804 5801 5799 5796 5794 5791 5789 5787 5784 5782 5780 5779 5777 5775 5774 5773 5772 5771 5770 5769 5769 5769 5769 5770 5771 5772 5773 5775 5776 5778 5781 5784 5787 5790 5793 5796 5800 5804
5818 5815 5812 5809 5807 5804 5801 5799 5796 5794 5791 5789 5786 5784 5782 5780 5778 5776 5774 5773 5771 5770 5769 5768 5767 5767 5766 5766 5765 5766 5766 5767 5768 5769 5771 5773 5776 5778 5781 5784 5787 5790 5793
5816 5814 5811 5809 5806 5803 5801 5798 5795 5793 5790 5788 5786 5783 5781 5779 5777 5775 5773 5771 5770 5769 5768 5766 5765 5764 5763 5762 5762 5762 5761 5762 5762 5763 5764 5765 5767 5770 5772 5775 5777 5780 5783
5815 5813 5810 5808 5805 5802 5800 5797 5795 5792 5790 5787 5785 5782 5780 5778 5776 5774 5772 5770 5768 5767 5766 5764 5763 5762 5761 5759 5758 5757 5757 5756 5757 5757 5758 5759 5760 5762 5764 5766 5768 5771 5773
5813 5811 5809 5806 5804 5801 5799 5796 5794 5791 5788 5786 5783 5781 5779 5777 5775 5773 5771 5769 5767 5765 5764 5762 5761 5759 5758 5757 5755 5754 5753 5752 5752 5752 5752 5753 5754 5755 5757 5758 5760 5761 5764
5811 5809 5807 5805 5803 5800 5798 5795 5792 5790 5787 5784 5782 5780 5777 5775 5773 5771 5769 5767 5766 5764 5762 5760 5759 5757 5756 5754 5752 5751 5750 5749 5748 5748 5747 5747 5748 5748 5749 5750 5752 5753 5755
5808 5807 5805 5803 5801 5798 5796 5793 5791 5788 5785 5783 5780 5778 5776 5774 5772 5770 5768 5766 5764 5762 5760 5758 5757 5755 5753 5751 5750 5748 5747 5745 5744 5743 5742 5742 5742 5742 5743 5744 5744 5745 5747
5805 5804 5802 5800 5798 5796 5794 5791 5789 5786 5784 5781 5779 5776 5774 5772 5770 5768 5766 5764 5762 5760 5758 5756 5754 5752 5750 5749 5747 5745 5744 5742 5741 5739 5738 5737 5737 5737 5737 5737 5737 5738 5739
5801 5800 5799 5797 5795 5794 5791 5789 5787 5784 5781 5779 5777 5774 5772 5770 5768 5765 5763 5761 5759 5757 5755 5753 5751 5749 5748 5746 5744 5742 5741 5739 5737 5736 5734 5733 5732 5732 5731 5731 5731 5732 5732
5796 5796 5795 5793 5792 5790 5788 5786 5784 5781 5779 5777 5774 5772 5770 5767 5765 5763 5760 5758 5756 5754 5752 5750 5748 5746 5744 5742 5741 5739 5737 5736 5734 5732 5731 5729 5728 5727 5727 5726 5726 5725 5725
5791 5791 5790 5789 5788 5786 5785 5783 5781 5778 5776 5774 5771 5769 5767 5764 5762 5760 5757 5755 5753 5750 5748 5746 5745 5742 5740 5739 5737 5735 5733 5732 5730 5728 5727 5725 5724 5723 5722 5721 5720 5720 5719
5785 5785 5784 5784 5783 5782 5780 5779 5777 5775 5773 5770 5768 5766 5763 5761 5758 5756 5753 5751 5749 5747 5745 5743 5741 5739 5737 5735 5733 5731 5729 5727 5725 5724 5722 5721 5720 5718 5717 5716 5715 5714 5713
5778 5778 5778 5778 5777 5776 5775 5774 5772 5770 5768 5766 5764 5762 5759 5757 5754 5752 5749 5747 5744 5742 5740 5738 5736 5734 5732 5730 5728 5726 5724 5723 5721 5719 5718 5716 5715 5713 5712 5710 5709 5708 5707
5771 5771 5771 5771 5771 5770 5769 5768 5767 5765 5763 5761 5759 5757 5755 5752 5750 5747 5744 5742 5740 5737 5735 5733 5731 5729 5727 5725 5723 5721 5719 5717 5715 5714 5712 5711 5709 5708 5706 5705 5703 5702 5700
5763 5763 5763 5763 5763 5763 5762 5761 5760 5759 5758 5756 5754 5752 5749 5747 5745 5742 5739 5737 5734 5732 5730 5727 5725 5723 5721 5719 5717 5715 5713 5711 5709 5708 5706 5704 5703 5701 5699 5698 5696 5695 5693
5754 5754 5755 5755 5755 5755 5755 5754 5753 5752 5751 5749 5747 5745 5743 5741 5738 5736 5734 5731 5728 5726 5723 5721 5719 5717 5714 5712 5710 5708 5706 5705 5703 5701 5699 5697 5696 5694 5692 5690 5689 5687 5686
5745 5745 5746 5747 5747 5747 5747 5746 5745 5745 5743 5742 5740 5738 5736 5734 5732 5729 5727 5724 5722 5719 5717 5714 5712 5709 5707 5705 5703 5701 5699 5697 5695 5693 5691 5689 5688 5686 5684 5682 5681 5679 5677
5735 5736 5737 5737 5738 5738 5738 5738 5737 5736 5735 5734 5733 5731 5729 5727 5724 5722 5719 5717 5714 5711 5709 5706 5704 5701 5699 5697 5694 5692 5690 5688 5686 5684 5682 5680 5678 5677 5675 5673 5671 5669 5668
5724 5726 5727 5728 5728 5728 5728 5728 5728 5727 5726 5725 5724 5722 5720 5718 5716 5714 5711 5708 5705 5702 5700 5697 5695 5692 5690 5687 5685 5683 5681 5679 5677 5675 5673 5671 5668 5666 5664 5662 5661 5659 5657
5713 5715 5716 5717 5718 5718 5718 5718 5718 5718 5717 5716 5715 5713 5711 5709 5707 5704 5701 5699 5696 5693 5690 5687 5685 5682 5680 5677 5675 5673 5670 5668 5666 5664 5662 5660 5657 5655 5653 5651 5649 5647 5645
5702 5703 5705 5706 5707 5708 5708 5708 5708 5707 5707 5706 5705 5703 5701 5699 5697 5694 5691 5688 5685 5682 5680 5677 5674 5671 5669 5666 5664 5661 5659 5657 5654 5652 5650 5647 5645 5643 5640 5638 5636 5634 5631
5689 5691 5693 5694 5695 5696 5696 5697 5697 5696 5696 5695 5694 5692 5690 5688 5686 5683 5680 5677 5674 5671 5668 5665 5662 5659 5657 5654 5651 5649 5646 5644 5642 5639 5637 5634 5632 5629 5626 5624 5621 5619 5617
5676 5678 5680 5681 5683 5684 5684 5685 5685 5685 5684 5683 5682 5681 5679 5676 5674 5671 5668 5665 5662 5659 5656 5653 5650 5647 5644 5641 5639 5636 5633 5631 5628 5626 5623 5621 5618 5615 5612 5609 5606 5603 5601
5661 5664 5666 5668 5670 5671 5672 5672 5672 5672 5672 5671 5670 5668 5666 5664 5662 5659 5656 5653 5650 5647 5644 5641 5638 5635 5632 5629 5626 5623 5620 5617 5615 5612 5609 5606 5603 5599 5596 5593 5590 5586 5583
5647 5650 5652 5654 5656 5658 5659 5659 5660 5660 5659 5658 5657 5655 5654 5652 5649 5646 5644 5641 5637 5634 5631 5628 5625 5622 5619 5615 5612 5609 5606 5603 5600 5597 5594 5591 5587 5583 5579 5576 5572 5568 5565
5632 5635 5638 5640 5642 5644 5645 5646 5646 5646 5646 5645 5644 5642 5640 5638 5636 5633 5631 5628 5624 5621 5618 5615 5612 5608 5605 5602 5599 5595 5592 5588 5585 5581 5577 5574 5570 5566 5562 5557 5553 5549 5545